Asheville, NC

3:22 PM EDT on April 22, 2018 (GMT -0400)
Asheville Regional

Weather History for KAVL - May, 2015

Change the Weather History Date:

Sunday, May 17, 2015

  Actual Average Record
Temperature  
Mean Temperature 72 °F 63 °F  
Max Temperature 81 °F 75 °F 88 °F (1896)
Min Temperature 62 °F 52 °F 34 °F (1967)
Degree Days  
Heating Degree Days 0 3  
Month to date heating degree days 33 78  
Since 1 July heating degree days 3973 4150  
Cooling Degree Days 7 2  
Month to date cooling degree days 45 18  
Year to date cooling degree days 64 26  
Growing Degree Days 22 (Base 50)    
Moisture  
Dew Point 59 °F    
Average Humidity 68    
Maximum Humidity 84    
Minimum Humidity 52    
Precipitation  
Precipitation T in 0.11 in 2.55 in (1980)
Month to date precipitation 0.15 1.94  
Year to date precipitation 13.05 16.53  
Snow  
Snow 0.00 in 0.00 in 0.00 in ()
Month to date snowfall 0.0 0.0  
Since 1 July snowfall 13.3 9.9  
Snow Depth 0.00 in    
Sea Level Pressure  
Sea Level Pressure 30.23 in    
Wind  
Wind Speed 4 mph (South)    
Max Wind Speed 13 mph    
Max Gust Speed 17 mph    
Visibility 10 miles    
Events      
T = Trace of Precipitation, MM = Missing Value Source: NWS Daily Summary

Daily Weather History Graph

Daily Weather History Graph

Search for Another Location

Airport or City:

Astronomy

May. 17, 2015 Rise Set
Actual Time 6:24 AM EDT 8:29 PM EDT
Civil Twilight 5:55 AM EDT 8:57 PM EDT
Nautical Twilight 5:21 AM EDT 9:32 PM EDT
Astronomical Twilight 4:44 AM EDT 10:09 PM EDT
Moon 6:10 AM EDT (5/17) 8:05 PM EDT (5/17)
Length of Visible Light 15h 01m
Length of Day
14h 04m
Waning Crescent, 0% of the Moon is Illuminated
May 17
Waning Crescent
May 18
New
May 25
First Quarter
Jun 2
Full
Jun 9
Last Quarter

Hourly Weather History & Observations

Time (EDT) Temp. Dew Point Humidity Pressure Visibility Wind Dir Wind Speed Gust Speed Precip Events Conditions
12:54 AM 64.9 °F 57.9 °F 78% 30.22 in 10.0 mi South 5.8 mph - N/A   Clear
1:54 AM 64.0 °F 59.0 °F 84% 30.21 in 10.0 mi Calm Calm - N/A   Clear
2:54 AM 64.9 °F 57.9 °F 78% 30.19 in 10.0 mi South 3.5 mph - N/A   Clear
5:54 AM 64.0 °F 57.9 °F 80% 30.20 in 10.0 mi SSE 8.1 mph - N/A   Clear
6:54 AM 63.0 °F 57.9 °F 84% 30.24 in 10.0 mi Calm Calm - N/A   Clear
7:54 AM 64.9 °F 59.0 °F 81% 30.27 in 10.0 mi South 4.6 mph - N/A   Clear
8:54 AM 66.0 °F 59.0 °F 78% 30.28 in 10.0 mi South 4.6 mph - N/A   Overcast
9:54 AM 66.9 °F 59.0 °F 76% 30.28 in 10.0 mi Calm Calm - N/A   Overcast
10:54 AM 68.0 °F 60.1 °F 76% 30.28 in 10.0 mi Calm Calm - 0.00 in   Overcast
11:54 AM 71.1 °F 60.1 °F 68% 30.27 in 10.0 mi SSE 4.6 mph - N/A   Overcast
12:54 PM 75.0 °F 61.0 °F 62% 30.27 in 10.0 mi SW 5.8 mph - N/A   Clear
1:54 PM 77.0 °F 59.0 °F 54% 30.25 in 10.0 mi South 9.2 mph - N/A   Overcast
2:54 PM 79.0 °F 59.0 °F 50% 30.22 in 10.0 mi Variable 5.8 mph - N/A   Mostly Cloudy
3:54 PM 78.1 °F 60.1 °F 54% 30.20 in 10.0 mi Variable 4.6 mph - N/A   Overcast
4:54 PM 77.0 °F 60.1 °F 56% 30.20 in 10.0 mi WSW 3.5 mph - N/A   Mostly Cloudy
5:54 PM 77.0 °F 61.0 °F 58% 30.19 in 10.0 mi SW 9.2 mph - N/A   Partly Cloudy
6:54 PM 75.9 °F 60.1 °F 58% 30.19 in 10.0 mi SSW 5.8 mph - N/A   Partly Cloudy
7:54 PM 75.0 °F 59.0 °F 57% 30.20 in 10.0 mi SSW 8.1 mph - N/A   Partly Cloudy
8:54 PM 72.0 °F 60.1 °F 66% 30.22 in 10.0 mi South 5.8 mph - N/A   Clear
9:54 PM 70.0 °F 61.0 °F 73% 30.23 in 10.0 mi SSE 4.6 mph - N/A   Overcast
10:54 PM 69.8 °F 60.8 °F 73% 30.30 in 10.0 mi Calm Calm - N/A   Mostly Cloudy
11:54 PM 70.0 °F 61.0 °F 73% 30.24 in 10.0 mi Calm Calm - N/A   Mostly Cloudy